THORAD AGENA D DEB, 4652

Orbit data source: Space-Track

THORAD AGENA D DEB, 4652 is space debris in SSO originally from a launch on Wed, 08 Apr 1970 UTC launched from the Air Force Western Test Range (AFWTR). Debris objects in space refer to the collection of defunct objects orbiting the Earth. Examples of debris include non-operational satellites, rocket bodies, and fragments generated from explosions, collisions, or faulty payload assembly.

Loading next visibility...
THORAD AGENA D DEB details
Identifier
4652, 1970-025AL
Orbit
SSO
Last TLE update1 day ago
Origin
Flag of USGSFC (US)
ManufacturerUnknown
MissionSpacecraft
Bus & MotorUnknown
MassUnknown
Launch date (UTC)
1970-04-08 (55 years ago)
Launch vehicleUnknown
Launch site
Air Force Western Test Range (AFWTR)
Object type
Payload
Rocket body
Debris
Shape & HBRUnknown
Radar Cross SectionSmall (<0.1 m²)

Expand to show TLE details & history

TLE from 1 day ago
0 THORAD AGENA D DEB
1 04652U 70025AL  25023.34976293  .00002618  00000-0  21800-2 0  9996
2 04652  99.5636 157.1448 0031978 142.8621 246.2687 13.89246235746396
Epoch: 2025-01-23T08:23Z
Definitive object data (Epoch: 2025-01-23T08:23:39.517Z)
Latitude28.4038°
Longitude-96.89872°
Altitude944.183 km
Speed7.377 km/s
True Right ascension10h 07m 46s
True Declination28° 15' 50"
Sunlit
Object was in full shadow at TLE epoch
Visualization TLE readout
Latitude47.91656°
Longitude-101.20813°
Altitude939.009 km
Speed7.387 km/s
Apparent Right ascension05h 38m 09s
Apparent Declination16° 50' 31"
Sunlit
Object is in full shadow
Visualization observer readout
Local Sidereal Time13:24:32
Azimuth300.153° NW
Elevation-8.207°
Doppler factor1
Orbital elements
Apogee altitude951.881 km
Perigee altitude905.15 km
Semi-major axis7,306.653 km
Eccentricity0.0031978
Inclination99.5636°
RAAN157.1448°
Arg. of periapsis142.8621°
True anomaly245.93379°
Mean anomaly246.2687°
Eccentric anomaly246.10119°
Mean motion3.47509 °/min
BSTAR0.00218
Orbital period103.59 mins
Loading maneuver chart data...

THORAD AGENA D DEB Visibility forecast

Observer location: undefined°, undefined

Span
Click to sort rows by Start time (UTC) header in descending order
Start Az.
Max El. time (UTC)
Max El. Az.
Max El.
End time (UTC)
End Az.
10 mins2025-01-24 21:08:44.443Z29.622° NE2025-01-24 21:13:44.443Z99.946° ESE35.07°2025-01-24 21:18:44.443Z170.005° S
7 mins2025-01-24 22:52:44.443Z337.961° N2025-01-24 22:55:44.443Z295.994° NW23.913°2025-01-24 22:59:44.443Z246.076° WSW
4 mins2025-01-25 07:07:44.443Z76.291° E2025-01-25 07:09:44.443Z53.116° ENE14.971°2025-01-25 07:11:44.443Z31.35° NE
9 mins2025-01-25 08:46:44.443Z168.758° S2025-01-25 08:50:44.443Z240.965° WSW44.7°2025-01-25 08:55:44.443Z342.884° N
|